Temperature
17 17 17 16 16 16 16 16 16 15 15 15 15 15 14 14 14 13 13 13 13 13 13 13 13 13 13 13 13 13 13 12 12 12 12 12 12 12 12 11 11 11 11
16 16 16 16 16 15 15 15 15 15 15 15 14 14 14 14 14 13 13 13 13 13 13 13 13 13 13 13 12 12 12 12 12 12 12 12 12 11 11 11 11 11 11
15 15 15 15 15 15 14 14 14 14 14 14 14 14 13 13 13 13 13 13 13 12 12 12 12 12 12 12 12 12 12 12 12 12 12 11 11 11 11 11 11 11 10
15 15 15 15 15 14 14 14 14 13 13 13 13 13 13 13 13 13 13 12 12 12 12 12 12 12 12 11 11 11 11 11 11 11 11 11 11 11 11 10 10 10 10
15 15 15 15 14 14 14 13 13 13 13 13 13 12 12 12 12 12 12 12 12 12 12 12 12 12 11 11 10 10 10 11 11 11 11 11 10 10 10 10 10 9 9
15 15 14 14 14 13 13 13 13 13 13 12 12 12 12 12 12 12 12 12 12 12 12 12 11 11 11 11 10 10 9 10 10 10 10 10 10 10 9 9 9 9 8
14 14 14 14 14 14 13 13 13 13 13 12 12 12 12 12 12 12 12 11 12 12 11 11 11 11 11 10 10 10 9 9 9 9 9 9 9 8 8 8 8 8 7
14 14 14 14 13 13 13 13 13 12 12 12 12 12 11 11 12 12 12 11 11 11 11 11 11 11 10 10 10 9 9 8 7 8 8 8 7 7 7 7 7 7 6
14 13 13 13 13 13 13 13 12 12 12 12 12 11 11 11 12 12 12 12 12 11 11 11 10 10 10 9 9 9 8 8 7 6 6 6 6 6 6 5 5 5 5
13 13 13 13 13 13 12 12 12 12 12 11 11 11 11 11 11 11 11 11 11 11 11 11 10 10 9 9 8 8 7 7 6 6 5 5 4 4 4 4 4 4 4
13 13 13 12 12 12 12 12 12 12 11 11 11 11 11 10 10 10 10 10 10 11 10 10 10 9 9 8 8 7 7 6 6 5 4 4 4 3 3 3 4 4 4
12 12 12 12 12 12 12 11 11 11 11 11 11 10 10 10 10 10 9 9 9 10 10 9 9 9 8 8 7 7 6 5 5 4 4 4 3 3 3 3 3 3 3
11 11 11 11 11 11 11 11 11 11 11 10 10 10 10 9 9 9 9 9 9 9 9 8 8 8 7 7 7 6 6 5 4 4 3 3 3 3 2 3 3 3 3
10 10 10 10 10 10 10 10 10 10 10 10 10 10 9 9 9 9 8 8 8 8 8 7 8 7 7 6 6 5 5 4 4 3 3 3 2 2 2 2 2 2 2
9 9 9 9 10 10 9 9 9 9 9 9 9 9 9 9 8 8 8 8 7 7 7 7 7 6 6 5 4 4 4 3 3 3 2 2 2 1 1 1 1 1 1
8 8 8 8 9 9 9 9 8 8 8 8 8 8 8 8 7 7 7 7 7 6 6 6 6 5 5 4 3 3 3 2 2 2 1 1 1 1 0 0 0 -0 -0
7 7 7 7 7 8 8 8 8 8 8 8 7 7 7 7 7 6 6 6 6 6 5 5 5 4 4 3 3 2 2 2 1 1 1 1 0 -0 -0 -1 -1 -1 -1
6 6 7 7 7 7 7 7 7 7 7 7 6 6 6 6 6 6 5 5 5 5 4 4 4 3 3 2 2 2 1 1 1 0 0 -0 -1 -1 -1 -2 -2 -2 -2
5 6 6 6 6 6 6 6 6 6 5 5 5 5 5 5 5 4 4 4 4 3 3 3 2 2 2 1 1 1 1 0 -0 -0 -1 -1 -1 -2 -2 -3 -3 -3 -3
5 5 5 5 5 5 5 4 4 4 4 4 4 3 3 3 3 3 2 2 2 2 2 2 1 1 1 0 0 -0 -1 -1 -1 -1 -2 -2 -2 -2 -2 -3 -3 -3 -3
4 3 3 3 3 4 3 3 3 3 3 2 2 2 2 1 1 1 1 1 1 1 1 0 0 -0 -0 -1 -1 -1 -2 -2 -3 -3 -3 -3 -3 -3 -3 -3 -3 -3 -3
2 2 2 3 3 3 2 2 2 2 1 1 1 0 0 -0 -0 -1 -1 -1 -1 -1 -1 -1 -1 -2 -2 -2 -3 -3 -3 -4 -4 -4 -4 -3 -4 -3 -3 -3 -3 -3 -3
1 2 2 2 2 1 1 1 1 1 0 0 -0 -1 -1 -1 -1 -1 -1 -2 -2 -2 -2 -3 -3 -4 -4 -4 -4 -5 -5 -5 -5 -5 -5 -3 -3 -3 -3 -3 -3 -3 -3
1 1 1 1 1 1 1 0 0 -0 -0 -1 -1 -1 -1 -2 -2 -2 -2 -3 -3 -3 -4 -4 -4 -5 -5 -5 -6 -6 -6 -6 -5 -5 -5 -4 -3 -3 -3 -3 -3 -3 -4
1 1 0 0 0 0 -0 -0 -1 -1 -1 -2 -2 -2 -3 -3 -4 -4 -4 -4 -4 -5 -5 -5 -6 -6 -6 -6 -6 -6 -6 -6 -5 -5 -5 -5 -4 -4 -3 -2 -3 -3 -4
0 0 0 -0 -0 -1 -1 -1 -1 -2 -2 -3 -3 -4 -4 -4 -5 -6 -5 -5 -5 -5 -6 -6 -6 -6 -6 -6 -6 -6 -6 -6 -7 -6 -6 -6 -5 -5 -4 -3 -3 -3 -4
Wind_Speed
7 9 10 12 13 13 11 10 10 9 9 10 11 11 9 10 11 14 15 18 17 15 14 12 11 10 10 9 9 8 8 8 8 8 8 8 8 9 9 9 9 9 9
11 10 9 11 12 14 14 13 11 9 8 9 8 10 11 11 12 15 16 18 19 18 16 15 13 13 12 11 10 10 9 9 9 8 8 8 8 8 8 8 8 8 8
15 12 8 8 12 15 15 12 11 9 7 6 6 8 9 10 12 14 16 17 18 19 18 17 16 15 14 13 12 11 11 10 9 9 8 8 7 7 7 7 6 6 6
17 13 8 8 13 14 12 7 7 7 7 6 6 6 6 7 10 13 15 16 17 17 19 19 18 17 16 15 14 13 12 11 10 9 9 8 7 7 6 5 5 4 4
15 13 9 9 12 10 8 7 8 6 7 7 7 6 6 5 6 10 11 15 17 18 19 20 21 20 18 17 17 16 14 13 11 10 10 9 8 7 6 5 4 3 2
12 11 8 9 10 6 8 7 8 7 6 7 7 7 6 6 5 6 9 13 16 18 20 19 20 20 21 20 19 17 16 15 13 12 11 10 9 8 7 6 5 4 3
11 10 6 6 6 8 9 9 8 8 8 4 3 4 4 5 7 7 6 7 11 17 19 20 19 19 19 21 21 19 18 17 15 13 12 11 10 9 8 7 6 5 5
9 8 7 7 7 7 8 9 8 6 5 5 5 3 4 4 6 8 7 8 9 11 14 18 19 19 19 19 20 21 19 18 17 15 13 12 11 10 9 8 7 7 6
8 8 8 6 7 8 8 9 9 9 8 7 6 6 5 7 5 4 7 8 8 8 9 13 17 19 20 20 20 21 20 19 18 16 14 13 12 11 10 9 9 8 8
6 7 7 7 7 7 8 9 9 8 9 8 6 7 6 4 5 4 3 5 7 8 9 8 12 17 19 19 20 21 21 20 18 16 15 13 12 12 11 10 9 8 7
5 6 6 5 5 6 7 8 8 8 8 9 7 5 7 6 5 5 6 4 3 4 5 6 7 12 17 18 19 21 22 21 18 16 15 14 13 12 12 10 9 8 8
4 6 6 4 4 5 6 7 7 8 8 9 8 7 6 5 6 7 10 7 5 3 2 3 4 6 11 15 19 21 22 21 19 18 17 15 12 12 10 9 9 9 9
4 7 6 5 4 4 5 5 5 6 6 7 8 8 8 8 5 5 7 7 5 2 1 1 1 2 5 9 13 19 20 21 19 18 16 14 11 7 6 7 9 10 11
4 6 6 6 6 6 5 5 4 4 4 5 6 6 6 6 6 6 5 5 5 3 2 3 1 1 0 3 8 14 15 19 18 17 15 13 9 7 8 9 10 12 13
5 7 7 7 7 7 6 5 4 4 4 3 3 3 3 2 2 2 3 4 5 5 5 4 2 1 1 4 7 8 9 14 15 14 12 11 9 8 9 11 12 13 15
7 7 8 8 8 8 8 6 5 5 5 5 4 4 3 3 2 2 1 1 2 4 4 2 2 1 2 3 6 7 8 10 11 11 11 10 9 10 11 13 14 15 15
8 8 8 8 9 9 9 8 8 8 7 7 7 6 6 5 4 4 3 2 2 0 2 1 2 1 1 3 3 5 5 4 4 6 7 8 10 12 13 13 14 14 15
7 8 8 9 10 10 10 10 9 9 9 9 8 8 8 6 7 5 5 4 3 3 1 2 1 1 1 2 3 3 3 3 2 4 7 9 11 11 12 13 13 14 14
8 8 9 10 10 10 10 10 10 10 10 10 9 9 8 7 7 6 6 5 4 4 3 2 2 2 2 2 3 2 1 1 1 3 6 8 10 11 12 12 13 13 14
8 9 9 9 9 9 10 9 9 10 10 10 9 9 8 7 6 6 5 5 5 5 4 4 3 2 2 2 2 1 1 1 1 2 5 7 8 9 10 12 12 13 13
9 8 8 9 9 8 9 9 9 9 9 9 9 9 9 10 10 7 5 5 5 4 4 4 3 2 2 2 1 1 1 1 1 1 2 3 5 7 10 12 13 14 14
8 8 9 9 9 9 13 14 10 8 8 8 8 8 8 10 12 12 11 9 7 4 3 2 2 2 1 1 1 1 1 1 2 1 1 4 4 5 9 12 13 14 14
7 8 8 8 8 9 13 13 13 8 7 7 6 6 6 7 8 6 8 10 9 9 5 2 2 0 0 1 2 1 1 2 3 3 1 4 3 5 8 11 13 14 14
5 5 6 6 6 8 11 11 11 7 6 6 5 5 5 5 4 5 5 6 6 5 5 2 2 2 2 3 4 4 4 2 3 4 3 3 3 3 4 10 13 12 10
4 3 3 4 5 5 9 10 8 4 5 5 5 4 3 4 7 7 5 4 5 5 6 5 3 3 4 5 4 2 1 0 3 3 2 2 3 4 4 4 7 6 7
3 2 2 2 3 4 7 8 7 3 3 4 4 5 7 6 7 7 2 2 3 4 4 4 6 7 6 6 5 1 3 3 2 3 2 1 2 3 5 3 3 7 9
Wind_Direction
202 203 207 208 209 208 209 214 222 229 236 242 244 242 235 218 203 197 198 196 190 186 185 186 188 187 184 179 172 165 158 152 146 141 135 131 125 120 114 108 103 98 94
204 201 204 209 213 214 215 216 220 226 231 233 236 234 230 220 208 201 200 200 197 193 192 193 196 197 196 192 186 180 174 168 161 156 150 144 138 132 126 118 111 105 99
208 205 206 209 214 216 217 218 224 229 234 234 234 231 226 218 210 207 205 203 202 200 198 201 203 203 204 201 197 192 187 182 176 171 165 160 155 148 140 132 123 115 108
214 210 211 214 213 212 213 212 215 221 230 230 232 231 224 217 213 211 209 207 205 205 205 207 207 208 209 208 205 201 197 193 189 184 180 176 173 168 162 154 147 139 127
219 217 221 223 214 211 212 215 215 211 222 228 231 233 228 220 213 211 211 212 210 209 208 211 210 210 211 213 212 208 203 200 199 196 193 190 189 188 187 183 179 174 166
226 222 227 228 217 216 221 218 218 216 218 221 228 233 231 230 221 214 213 214 215 215 212 212 211 212 211 213 215 214 209 205 204 204 203 201 202 202 203 205 205 208 216
235 228 232 230 222 226 228 224 221 223 228 208 214 253 263 243 236 230 216 213 217 217 215 214 211 208 210 213 215 217 215 210 208 209 209 210 211 213 215 218 221 229 239
249 240 234 238 231 232 235 230 221 225 225 189 192 214 267 282 254 234 219 220 221 217 217 217 213 209 207 207 211 215 217 216 213 212 214 216 218 221 225 230 234 241 250
263 253 246 242 241 232 236 233 223 222 230 215 199 192 210 236 255 262 234 228 220 215 218 215 214 212 209 207 207 210 212 215 217 217 218 220 224 228 232 239 245 250 258
287 275 263 255 251 246 243 242 234 229 229 231 219 221 222 203 213 265 268 245 231 225 221 218 215 213 210 207 206 206 206 208 215 222 226 228 230 234 239 245 252 259 267
322 312 289 273 264 259 256 252 247 238 232 234 224 215 230 231 223 234 262 262 259 246 232 226 219 214 211 207 205 205 203 206 213 222 230 234 237 242 246 250 258 266 277
340 346 333 310 285 276 271 265 256 250 244 242 238 222 213 214 218 224 243 246 244 251 254 243 232 218 209 205 205 202 201 205 211 220 227 232 238 250 257 262 270 279 287
351 348 350 342 326 309 297 285 275 266 256 251 246 240 233 234 227 226 240 247 239 240 284 300 321 282 219 204 203 197 198 201 207 215 221 230 240 253 266 274 279 285 288
356 354 356 357 354 347 335 318 300 289 281 267 261 255 248 244 235 227 227 233 245 247 242 239 30 19 42 180 195 187 194 197 201 209 219 229 236 245 261 268 275 280 283
8 7 7 8 4 3 358 353 351 342 333 320 305 289 272 278 271 248 224 213 223 241 240 205 185 60 95 124 162 167 176 193 198 204 215 228 238 249 259 265 270 274 276
18 17 18 17 16 14 12 17 16 11 25 20 16 24 24 13 17 5 330 259 223 226 234 166 148 123 137 139 152 140 159 181 196 209 218 229 241 251 258 263 266 269 272
25 28 25 26 26 23 21 28 32 30 38 37 35 41 40 34 38 30 29 30 20 86 205 114 78 76 113 132 119 121 139 153 190 218 234 246 254 258 261 265 268 271 273
32 33 34 36 34 31 30 34 37 39 43 44 41 46 42 43 46 38 39 38 31 30 101 142 100 85 86 133 116 121 132 148 183 242 257 262 266 269 270 270 271 272 274
42 42 44 44 40 38 38 39 43 47 50 49 47 50 46 50 49 42 42 40 31 31 47 99 90 77 77 101 101 99 115 93 215 260 271 275 277 276 275 275 276 278 280
51 49 49 48 48 47 45 45 49 52 53 51 48 47 47 52 55 48 45 39 41 44 50 71 76 73 78 85 95 102 98 67 332 303 289 285 284 288 290 288 286 286 284
55 49 48 48 48 52 52 52 51 55 54 52 46 41 44 52 59 63 62 48 44 46 48 57 55 56 55 66 85 92 102 36 323 313 307 292 294 291 289 288 286 283 278
55 52 50 48 49 56 61 64 65 54 52 49 43 35 36 41 44 45 53 54 51 53 50 51 43 50 36 41 77 90 105 72 304 293 297 278 265 268 272 274 276 276 275
60 56 50 48 48 56 64 67 69 64 55 48 43 37 35 30 39 36 38 37 32 37 48 98 108 125 201 201 143 130 177 196 231 259 295 280 263 266 269 273 281 280 278
71 64 53 45 40 47 61 66 68 57 49 40 37 39 35 7 11 47 42 27 16 8 13 69 159 203 207 203 186 187 198 217 257 253 208 261 287 275 281 284 287 282 278
89 77 66 54 41 27 55 64 68 50 39 22 12 15 21 359 5 26 43 21 5 350 5 13 358 315 294 283 238 171 184 263 303 287 221 236 296 305 293 288 296 295 291
119 110 86 54 42 16 46 59 69 60 38 14 4 360 358 353 352 358 37 13 334 312 325 342 347 345 343 335 331 174 174 179 224 281 271 236 287 331 316 289 272 279 284
Height
1560 1560 1561 1561 1562 1562 1563 1563 1563 1563 1563 1563 1563 1563 1563 1563 1562 1562 1561 1561 1561 1560 1559 1559 1558 1557 1556 1555 1555 1554 1554 1553 1554 1554 1553 1554 1554 1554 1554 1554 1554 1554 1554
1557 1558 1558 1558 1559 1560 1560 1561 1561 1561 1560 1560 1560 1560 1560 1560 1560 1559 1559 1559 1558 1558 1557 1557 1556 1555 1555 1554 1553 1553 1553 1553 1553 1553 1553 1553 1553 1553 1553 1553 1553 1553 1553
1555 1555 1555 1555 1556 1557 1557 1557 1557 1557 1557 1557 1556 1557 1557 1557 1557 1556 1556 1556 1556 1555 1555 1555 1554 1554 1553 1553 1552 1552 1551 1551 1551 1551 1552 1552 1552 1552 1552 1552 1552 1552 1552
1552 1552 1552 1552 1553 1553 1553 1553 1553 1553 1553 1553 1553 1553 1553 1553 1553 1553 1553 1552 1552 1552 1552 1552 1552 1551 1551 1551 1550 1550 1550 1550 1550 1550 1550 1550 1551 1551 1551 1551 1551 1551 1551
1549 1549 1549 1549 1550 1550 1549 1549 1549 1549 1549 1549 1549 1549 1549 1549 1549 1549 1548 1548 1548 1548 1548 1548 1548 1548 1548 1548 1548 1548 1547 1547 1547 1548 1548 1548 1548 1549 1549 1549 1549 1550 1550
1545 1545 1545 1545 1545 1545 1545 1545 1545 1545 1545 1545 1545 1544 1544 1544 1544 1544 1543 1543 1543 1543 1543 1544 1544 1544 1544 1544 1545 1545 1545 1544 1545 1545 1545 1545 1546 1546 1547 1547 1547 1547 1548
1540 1540 1540 1540 1540 1540 1540 1540 1540 1540 1539 1540 1539 1538 1537 1538 1537 1537 1537 1537 1537 1537 1537 1537 1538 1539 1539 1540 1540 1541 1541 1541 1541 1541 1542 1542 1543 1543 1544 1544 1544 1545 1545
1535 1535 1534 1534 1534 1534 1534 1534 1534 1533 1533 1534 1533 1532 1531 1530 1529 1530 1530 1530 1530 1531 1531 1531 1531 1532 1533 1534 1535 1536 1537 1537 1538 1538 1538 1539 1539 1540 1540 1541 1541 1542 1542
1529 1529 1528 1528 1528 1528 1527 1527 1528 1527 1527 1527 1527 1527 1525 1521 1522 1522 1522 1523 1523 1523 1523 1524 1524 1525 1526 1528 1529 1530 1531 1532 1533 1534 1535 1535 1535 1536 1537 1537 1538 1538 1539
1523 1522 1522 1522 1521 1521 1521 1521 1521 1521 1520 1520 1520 1519 1519 1518 1518 1515 1515 1515 1516 1515 1515 1516 1516 1517 1518 1520 1521 1523 1524 1525 1527 1528 1530 1531 1531 1532 1533 1533 1534 1534 1534
1516 1516 1515 1515 1515 1514 1514 1514 1514 1514 1513 1513 1513 1512 1512 1511 1511 1510 1508 1508 1508 1508 1508 1508 1509 1509 1510 1511 1513 1514 1516 1517 1519 1521 1523 1525 1526 1528 1528 1529 1529 1529 1529
1510 1510 1509 1508 1508 1508 1507 1507 1507 1507 1507 1506 1506 1506 1505 1505 1504 1503 1501 1500 1500 1501 1501 1501 1501 1501 1502 1503 1504 1506 1507 1509 1511 1514 1516 1518 1519 1521 1522 1522 1523 1524 1523
1505 1504 1503 1503 1502 1501 1501 1501 1500 1500 1500 1499 1499 1499 1498 1498 1498 1497 1496 1494 1493 1493 1493 1493 1493 1494 1494 1495 1496 1498 1499 1502 1504 1506 1508 1510 1512 1513 1514 1515 1515 1516 1516
1500 1499 1498 1497 1497 1496 1495 1495 1494 1493 1493 1493 1492 1492 1492 1491 1491 1491 1490 1489 1487 1486 1485 1485 1485 1486 1486 1487 1488 1490 1492 1495 1497 1499 1501 1503 1504 1505 1507 1508 1508 1509 1509
1496 1495 1494 1493 1492 1491 1490 1489 1488 1487 1487 1487 1486 1486 1485 1485 1485 1484 1484 1483 1483 1480 1478 1479 1480 1479 1480 1480 1482 1484 1486 1488 1490 1492 1494 1497 1498 1499 1500 1500 1501 1501 1501
1492 1491 1490 1488 1487 1486 1485 1484 1483 1482 1481 1481 1480 1480 1479 1479 1478 1478 1478 1477 1476 1476 1474 1472 1473 1474 1474 1475 1476 1478 1480 1483 1484 1487 1488 1490 1491 1492 1493 1493 1494 1494 1494
1489 1487 1486 1485 1484 1482 1481 1480 1479 1478 1477 1476 1475 1475 1474 1474 1473 1473 1472 1472 1471 1471 1470 1468 1468 1469 1469 1470 1472 1474 1476 1478 1479 1481 1483 1484 1485 1486 1486 1487 1487 1486 1486
1486 1485 1483 1482 1481 1479 1478 1477 1475 1474 1473 1472 1472 1471 1470 1470 1469 1469 1468 1468 1467 1466 1466 1465 1465 1465 1466 1467 1468 1470 1472 1473 1475 1475 1477 1478 1478 1479 1480 1480 1480 1479 1479
1484 1483 1482 1480 1478 1477 1476 1474 1473 1472 1471 1470 1469 1468 1468 1467 1466 1466 1465 1465 1464 1463 1463 1463 1462 1463 1463 1464 1465 1467 1468 1469 1470 1470 1471 1472 1472 1473 1473 1473 1473 1472 1472
1483 1482 1481 1479 1478 1476 1475 1474 1472 1471 1470 1469 1468 1467 1466 1465 1465 1464 1463 1462 1462 1461 1461 1461 1461 1461 1461 1461 1462 1463 1464 1465 1465 1466 1466 1467 1466 1466 1466 1466 1466 1466 1465
1483 1482 1481 1479 1478 1476 1475 1474 1473 1471 1470 1469 1468 1467 1466 1465 1464 1463 1463 1462 1461 1460 1460 1459 1459 1459 1459 1459 1460 1460 1461 1461 1461 1462 1462 1461 1461 1461 1461 1460 1460 1460 1459
1483 1482 1481 1480 1478 1477 1476 1475 1473 1472 1471 1470 1468 1467 1466 1465 1464 1463 1462 1461 1460 1460 1458 1458 1457 1457 1457 1457 1457 1457 1457 1458 1458 1459 1457 1457 1457 1456 1456 1455 1455 1454 1454
1484 1483 1482 1481 1479 1478 1477 1475 1474 1473 1471 1470 1469 1467 1466 1464 1463 1462 1461 1460 1459 1458 1457 1457 1456 1455 1455 1455 1455 1455 1455 1455 1454 1454 1453 1452 1453 1452 1451 1450 1450 1449 1449
1485 1484 1483 1481 1480 1479 1477 1476 1474 1473 1471 1470 1468 1467 1465 1464 1462 1460 1459 1458 1457 1456 1455 1454 1454 1453 1453 1453 1452 1452 1452 1451 1451 1451 1450 1448 1448 1447 1447 1445 1445 1444 1444
1485 1484 1483 1482 1481 1479 1477 1476 1474 1473 1471 1469 1467 1466 1464 1463 1461 1459 1457 1456 1455 1454 1453 1452 1452 1451 1450 1450 1450 1449 1449 1448 1447 1447 1446 1445 1443 1442 1441 1441 1440 1440 1439
1485 1484 1483 1482 1480 1479 1477 1475 1474 1472 1470 1468 1466 1464 1463 1461 1459 1457 1456 1454 1453 1452 1451 1450 1449 1448 1448 1447 1447 1447 1446 1446 1445 1444 1443 1442 1440 1439 1436 1435 1435 1435 1434